Regional Weather Roundup
Issued by NWS

Home | Current Version | Previous Version | Text Only | Print | Product List | Glossary On
Versions: 1 2 3 4 5 6 7 8 9 10 11 12 13 14 15 16 17 18 19 20 21 22 23 24 25 26 27 28 29 30 31 32 33 34 35 36 37 38 39 40 41 42 43 44 45 46 47 48 49 50
000
ASUS43 KDTX 201510
RWRMI
MICHIGAN HOURLY REGIONAL WEATHER ROUNDUP
NATIONAL WEATHER SERVICE DETROIT/PONTIAC MI
1100 AM EDT SAT SEP 20 2014

NOTE: "FAIR" INDICATES FEW OR NO CLOUDS BELOW 12,000 FEET WITH NO
SIGNIFICANT WEATHER AND/OR OBSTRUCTION TO VISIBILITY.

MIZ047>049-052>055-059>063-066>070-074>076-081>083-201600-
SOUTHEAST LOWER MICHIGAN

CITY           SKY/WX    TMP DP  RH WIND       PRES   REMARKS
ADRIAN         PTSUNNY   65  55  70 SW14      29.99F
ALMA           PTSUNNY   67  57  71 SW14G21   29.84R
ANN ARBOR      PTSUNNY   65  55  70 SW12      29.95F
BAD AXE        LGT RAIN  63  58  86 S13       29.84F
DETROIT CITY   PTSUNNY   69  55  60 SW14G23   29.95F
DETROIT        CLOUDY    66  56  70 S14       29.97F
FLINT          MOSUNNY   71  56  58 S14G23    29.88F
GROSSE ILE     CLOUDY    66  59  77 S10       29.96F
HILLSDALE      PTSUNNY   70  58  65 SW10G22   29.96F
HOWELL         PTSUNNY   68  56  66 SW12G20   29.91F

CITY           SKY/WX    TMP DP  RH WIND       PRES   REMARKS
JACKSON        PTSUNNY   69  56  62 SW17G26   29.93F
LAMBERTVILLE   CLOUDY    68  55  64 SW9       29.99F
LANSING        PTSUNNY   69  56  62 SW17G25   29.88F
LAPEER         NOT AVBL
MASON          PTSUNNY   68  57  67 SW10G17   29.91S
MONROE         CLOUDY    70  57  64 S10G16    29.96F
MT. CLEMENS    PTSUNNY   69  58  68 SW13      29.92F
PONTIAC        PTSUNNY   67  53  61 S8G21     29.92F
PORT HOPE        N/A     66  55  67 SW8G18    29.80F
PORT HURON     PTSUNNY   66  57  72 S12       29.93F
TRI CITIES     CLOUDY    69  56  62 SW18      29.83F
YPSILANTI      PTSUNNY   69  55  60 SW13      29.97F
$$
MIZ043>046-050>051-056>058-064>065-071>073-077>080-201600-
SOUTHWEST LOWER MICHIGAN

CITY           SKY/WX    TMP DP  RH WIND       PRES   REMARKS
BATTLE CREEK   PTSUNNY   68  56  65 SW23G31   29.91F
BENTON HARBOR  PTSUNNY   70  59  68 S16G23    29.88F
BIG RAPIDS     PTSUNNY   67  61  82 SW10G22   29.82S
COLDWATER      PTSUNNY   69  58  67 SW14G23   29.95S
HOLLAND        PTSUNNY   71  61  70 SW21G33   29.83F
GRAND RAPIDS   PTSUNNY   69  59  70 SW17G26   29.84F
KALAMAZOO      PTSUNNY   70  57  63 SW17      29.90F
MARSHALL       PTSUNNY   68  57  68 SW12G20   29.92S
MUSKEGON       PTSUNNY   68  59  73 SW16      29.85R
$$
MIZ016>042-201600-
NORTHERN LOWER MICHIGAN

CITY           SKY/WX    TMP DP  RH WIND       PRES   REMARKS
ALPENA         CLOUDY    61  55  81 SW9       29.75S
BEAVER ISLAND  CLOUDY    65  62  91 SW14G22   29.67R
BELLAIRE       CLOUDY    66  60  82 S7        29.72F
CADILLAC       PTSUNNY   66  60  82 SW15G21   29.80R
CHARLEVOIX     CLOUDY    64  62  92 S8G18     29.72S
FRANKFORT      CLOUDY    66  59  76 S17G26    29.74F
GAYLORD        CLOUDY    62  58  86 SW14      29.75F
GRAYLING       LGT RAIN  67  61  80 SW8G16    29.76F
HARBOR SPRINGS LGT RAIN  64  60  89 SW9       29.70F
HOUGHTON LAKE  PTSUNNY   64  57  78 SW9       29.80S
MANISTEE       CLOUDY    66  57  72 SW9G17    29.78S
OSCODA         PTSUNNY   64  54  69 SW18G24   29.79R
PELLSTON       TSTM      62  61  96 SW14G24   29.68F
TRAVERSE CITY  CLOUDY    66  59  78 S13G21    29.71F
$$
MIZ007>008-015-201600-
EASTERN UPPER MICHIGAN

CITY           SKY/WX    TMP DP  RH WIND       PRES   REMARKS
KINROSS        CLOUDY    63  63 100 SW9G18    29.65R
MACKINAC ISLAN LGT RAIN  61  60  98 S10G18    29.67R
NEWBERRY       CLOUDY    62  59  90 S15       29.62R
S. S. MARIE    CLOUDY    62  59  90 SE6       29.63R FOG
$$
MIZ004>006-011>014-085-201600-
CENTRAL UPPER MICHIGAN

CITY           SKY/WX    TMP DP  RH WIND       PRES   REMARKS
MANISTIQUE     CLOUDY    61  59  94 S12G21    29.63S
ESCANABA       CLOUDY    70  61  73 SW10      29.61F
MENOMINEE      MOSUNNY   68  61  77 SW9G16    29.65R
SAWYER-GWINN   PTSUNNY   68  61  77 SW10      29.60S
$$
MIZ001>003-009>011-084-201600-
WESTERN UPPER MICHIGAN

CITY           SKY/WX    TMP DP  RH WIND       PRES   REMARKS
IRON MOUNTAIN  CLOUDY    71  62  73 W9        29.63R
COPPER HARBOR    N/A     63  62  97 NW10G22   29.53S
IRONWOOD       CLOUDY    64  61  88 W12G25    29.65R
$$

ABBREVIATIONS USED IN REMARKS
   TC - TEMPERATURE IN CELSIUS
  WCI - WIND CHILL INDEX
   HX - HEAT INDEX
  VSB - VISIBILITY



USA.gov is the U.S. government's official web portal to all federal, state and local government web resources and services.